FW7989 Weather Reports


Display with metric or nautical units.
time (UTC)temp
F
wind
direction
speed
MPH
gust
MPH
rain 1hr
in
rain 24hr
in
rain mn
in
humidity
%
barometer
mb
20260901052100 55 59 0.0 3.0 0.00 0.00 0.00 88 1020.6
20260901051612 55 0 0.0 3.0 0.00 0.00 0.00 88 1020.6
20260901051101 55 0 0.0 3.0 0.00 0.00 0.00 88 1020.4
20260901050602 55 94 1.0 4.0 0.00 0.00 0.00 88 1020.4
20260901050105 55 0 0.0 4.0 0.00 0.00 0.00 87 1020.4
20260901045558 55 72 2.0 8.0 0.00 0.14 0.00 86 1020.4
20260901045058 56 58 2.0 8.0 0.00 0.13 0.00 86 1020.5
20260901044613 56 344 0.0 8.0 0.00 0.13 0.00 87 1020.5
20260901044058 56 0 4.0 8.0 0.00 0.13 0.00 87 1020.4
20260901043559 56 59 2.0 8.0 0.00 0.13 0.00 85 1020.3
20260901043103 56 149 2.0 8.0 0.00 0.13 0.00 85 1020.2
20260901042604 56 123 4.0 8.0 0.00 0.13 0.00 85 1020.2
20260901042102 56 132 2.0 8.0 0.00 0.13 0.00 85 1020.3
20260901041607 56 81 3.0 8.0 0.00 0.13 0.00 85 1020.2
20260901041102 56 127 3.0 8.0 0.00 0.13 0.00 85 1020.2
20260901040600 56 130 3.0 8.0 0.00 0.13 0.00 85 1020.1
20260901040114 56 154 4.0 8.0 0.00 0.13 0.00 85 1020.2
20260901035603 56 143 3.0 8.0 0.00 0.21 0.00 85 1020.2
20260901035101 56 143 3.0 8.0 0.00 0.21 0.00 84 1020.3
20260901034612 56 162 4.0 8.0 0.00 0.21 0.00 84 1020.2
20260901034103 56 92 3.0 8.0 0.00 0.21 0.00 85 1020.3
20260901033558 56 99 2.0 5.0 0.00 0.21 0.00 84 1020.3
20260901033103 56 112 2.0 5.0 0.00 0.21 0.00 84 1020.2
20260901032601 56 136 2.0 5.0 0.00 0.21 0.00 85 1020.2
20260901032100 56 134 2.0 4.0 0.00 0.21 0.00 84 1020.1
20260901031602 56 119 1.0 4.0 0.00 0.21 0.00 84 1020.3
20260901031100 56 93 2.0 6.0 0.00 0.21 0.00 85 1020.2
20260901030600 55 117 2.0 6.0 0.00 0.21 0.00 85 1020.2
20260901030104 55 142 3.0 7.0 0.00 0.21 0.00 85 1020.1
20260901025600 55 136 2.0 8.0 0.00 0.61 0.00 85 1020.2
20260901025100 55 135 4.0 8.0 0.00 0.61 0.00 84 1020.2
20260901024600 55 142 3.0 8.0 0.00 0.61 0.00 84 1020.2
20260901024058 55 101 3.0 7.0 0.00 0.61 0.00 84 1020.1
20260901023601 55 142 2.0 5.0 0.00 0.61 0.00 84 1020.3
20260901023109 55 131 1.0 5.0 0.00 0.61 0.00 84 1020.2
20260901022558 55 166 2.0 4.0 0.00 0.61 0.00 85 1020.3
20260901022100 55 155 1.0 3.0 0.00 0.61 0.00 85 1020.3
20260901021602 55 128 0.0 3.0 0.00 0.61 0.00 86 1020.3
20260901021058 55 114 1.0 3.0 0.00 0.61 0.00 86 1020.3
20260901020557 55 114 0.0 2.0 0.00 0.61 0.00 86 1020.5
20260901020101 55 114 0.0 2.0 0.00 0.61 0.00 85 1020.5
20260901015556 55 114 0.0 2.0 0.00 0.70 0.00 85 1020.4
20260901015058 55 0 0.0 2.0 0.00 0.70 0.00 83 1020.3
20260901014602 56 0 0.0 3.0 0.00 0.70 0.00 84 1020.3
20260901014057 56 119 1.0 3.0 0.00 0.70 0.00 84 1020.3
20260901013557 56 153 0.0 2.0 0.00 0.70 0.00 84 1020.4
20260901013104 56 0 0.0 4.0 0.00 0.70 0.00 84 1020.3
20260901012603 56 153 0.0 6.0 0.00 0.70 0.00 84 1020.3
20260901012058 56 153 2.0 6.0 0.00 0.70 0.00 85 1020.3
20260901011609 55 132 2.0 5.0 0.00 0.70 0.00 85 1020.3
20260901011058 55 101 1.0 3.0 0.00 0.70 0.00 85 1020.2
20260901010600 55 90 1.0 3.0 0.00 0.70 0.00 85 1020.2
20260901010107 55 0 1.0 3.0 0.00 0.70 0.00 84 1020.3
20260901005558 55 83 1.0 3.0 0.00 0.72 0.00 85 1020.3
20260901005058 55 101 0.0 2.0 0.00 0.72 0.00 84 1020.1
20260901004608 55 114 0.0 2.0 0.00 0.72 0.00 81 1020.2
20260901004055 56 0 0.0 2.0 0.00 0.72 0.00 82 1020.2
20260901003556 56 114 0.0 2.0 0.00 0.72 0.00 82 1020.1
20260901003100 56 0 1.0 2.0 0.00 0.72 0.00 81 1020.2
20260901002556 57 114 0.0 3.0 0.00 0.72 0.00 80 1020.2
20260901002057 57 0 0.0 3.0 0.00 0.72 0.00 80 1020.2
20260901001603 57 114 1.0 3.0 0.00 0.72 0.00 79 1020.1
20260901001056 58 137 1.0 3.0 0.00 0.72 0.00 79 1020.1
20260901000556 58 0 0.0 2.0 0.00 0.72 0.00 78 1020.2
20260901000108 59 350 0.0 3.0 0.00 0.72 0.00 78 1020.2
20260831235556 59 0 0.0 3.0 0.00 0.72 0.00 78 1020.2
20260831235056 59 352 0.0 3.0 0.00 0.72 0.00 78 1020.2
20260831234559 59 0 1.0 4.0 0.00 0.72 0.00 78 1020.3
20260831234058 59 0 2.0 4.0 0.00 0.72 0.00 78 1020.3
20260831233559 59 346 2.0 5.0 0.00 0.72 0.00 77 1020.3
20260831233103 58 338 2.0 5.0 0.00 0.72 0.00 77 1020.3
20260831232558 58 360 2.0 3.0 0.00 0.72 0.00 78 1020.2
20260831232059 58 352 1.0 3.0 0.00 0.72 0.00 78 1020.3
20260831231604 58 344 1.0 3.0 0.00 0.72 0.00 77 1020.2
20260831231058 58 352 1.0 3.0 0.00 0.72 0.00 76 1020.2
20260831230558 59 329 1.0 3.0 0.00 0.72 0.00 75 1020.2
20260831230114 59 336 1.0 8.0 0.00 0.72 0.00 75 1020.2
20260831225602 59 334 1.0 8.0 0.00 0.73 0.72 74 1020.2
20260831225058 59 348 2.0 5.0 0.00 0.73 0.72 74 1020.2
20260831224601 60 342 1.0 8.0 0.00 0.73 0.72 73 1020.1
20260831224059 60 326 2.0 8.0 0.00 0.73 0.72 73 1020.0
20260831223603 60 348 2.0 6.0 0.00 0.73 0.72 73 1020.1
20260831223106 60 289 3.0 8.0 0.00 0.73 0.72 72 1020.1
20260831222559 60 331 3.0 8.0 0.00 0.73 0.72 72 1020.1
20260831222059 61 316 3.0 9.0 0.00 0.73 0.72 72 1020.0
20260831221607 61 325 4.0 9.0 0.00 0.73 0.72 72 1020.0
20260831221058 61 334 4.0 10.0 0.00 0.73 0.72 72 1020.0
20260831220601 61 296 5.0 11.0 0.00 0.73 0.72 72 1020.1
20260831220131 62 327 5.0 11.0 0.00 0.73 0.72 72 1020.1
20260831215600 62 315 5.0 14.0 0.00 0.77 0.72 71 1020.0
20260831215100 62 323 5.0 14.0 0.00 0.77 0.72 71 1020.0
20260831214606 62 311 6.0 14.0 0.00 0.77 0.72 72 1019.9
20260831214058 62 319 7.0 12.0 0.00 0.77 0.72 72 1020.0
20260831213600 62 327 6.0 11.0 0.00 0.77 0.72 71 1019.8
20260831213128 62 304 6.0 14.0 0.00 0.77 0.72 71 1019.8
20260831212559 62 296 7.0 14.0 0.00 0.77 0.72 71 1019.8
20260831212101 62 308 8.0 17.0 0.00 0.77 0.72 70 1019.9
20260831211621 62 309 8.0 17.0 0.00 0.77 0.72 70 1019.8
20260831211057 62 292 8.0 17.0 0.00 0.77 0.72 70 1019.7
20260831210557 62 281 9.0 16.0 0.00 0.77 0.72 70 1019.7
20260831205558 61 283 7.0 15.0 0.00 0.77 0.72 69 1019.7
20260831205059 62 250 8.0 15.0 0.00 0.77 0.72 69 1019.7
20260831204602 62 309 9.0 14.0 0.00 0.77 0.72 70 1019.7
20260831204059 61 290 8.0 15.0 0.00 0.77 0.72 70 1019.7
20260831203559 62 294 8.0 15.0 0.00 0.77 0.72 70 1019.7
20260831203117 62 287 7.0 15.0 0.00 0.77 0.72 68 1019.6
20260831202600 62 281 9.0 15.0 0.00 0.77 0.72 69 1019.6
20260831202056 62 286 8.0 15.0 0.00 0.77 0.72 71 1019.5
20260831201604 62 286 8.0 14.0 0.00 0.77 0.72 71 1019.4
20260831201056 62 292 9.0 15.0 0.00 0.77 0.72 71 1019.5
20260831200558 62 279 9.0 17.0 0.00 0.77 0.72 71 1019.4
20260831200106 62 297 7.0 17.0 0.00 0.77 0.72 71 1019.4
20260831195558 62 307 8.0 17.0 0.00 0.77 0.72 70 1019.3
20260831195058 62 297 8.0 17.0 0.00 0.77 0.72 71 1019.4
20260831194610 62 292 8.0 17.0 0.00 0.77 0.72 71 1019.2
20260831194058 62 271 9.0 17.0 0.00 0.77 0.72 71 1019.3
20260831193557 62 273 9.0 16.0 0.00 0.77 0.72 71 1019.1
20260831193104 62 333 8.0 16.0 0.00 0.77 0.72 71 1019.1
20260831192555 62 286 9.0 19.0 0.00 0.77 0.72 70 1018.9
20260831192059 62 285 8.0 19.0 0.00 0.77 0.72 71 1018.9
20260831191604 62 289 10.0 16.0 0.00 0.77 0.72 71 1018.9
20260831191102 62 292 9.0 19.0 0.00 0.77 0.72 71 1018.9
20260831190559 62 252 7.0 19.0 0.00 0.77 0.72 71 1018.9
20260831190111 62 360 10.0 18.0 0.00 0.77 0.72 70 1018.8
20260831185558 62 284 8.0 18.0 0.00 0.77 0.72 70 1018.8
20260831185058 62 278 8.0 15.0 0.00 0.77 0.72 70 1018.8
20260831184606 62 273 8.0 20.0 0.00 0.77 0.72 68 1018.7
20260831184057 63 306 9.0 20.0 0.00 0.77 0.72 67 1018.6
20260831183559 63 240 9.0 20.0 0.00 0.77 0.72 67 1018.7
20260831183108 63 298 10.0 16.0 0.00 0.77 0.72 67 1018.5
20260831182556 63 300 9.0 16.0 0.00 0.77 0.72 68 1018.5
20260831182059 63 292 8.0 20.0 0.00 0.77 0.72 67 1018.5
20260831181604 64 277 8.0 20.0 0.00 0.77 0.72 68 1018.6
20260831181059 64 254 11.0 20.0 0.00 0.77 0.72 67 1018.4
20260831180558 63 303 9.0 16.0 0.00 0.77 0.72 68 1018.3
20260831180109 63 292 9.0 16.0 0.00 0.77 0.72 67 1018.4
20260831175558 63 306 9.0 19.0 0.00 0.81 0.72 67 1018.2
20260831175058 64 277 8.0 19.0 0.00 0.81 0.72 66 1018.2
20260831174601 64 277 7.0 14.0 0.00 0.81 0.72 68 1018.2
20260831174101 64 292 7.0 14.0 0.00 0.81 0.72 68 1018.1
20260831173556 64 286 6.0 18.0 0.00 0.81 0.72 68 1018.1
20260831173104 64 291 8.0 18.0 0.00 0.81 0.72 67 1018.1
20260831172558 64 290 10.0 17.0 0.00 0.81 0.72 68 1017.9
20260831172102 64 296 7.0 17.0 0.00 0.81 0.72 68 1018.0
20260831171605 64 290 8.0 17.0 0.00 0.81 0.72 68 1018.1
20260831171058 65 245 8.0 17.0 0.00 0.81 0.72 67 1018.0
20260831170558 65 279 8.0 17.0 0.00 0.81 0.72 67 1018.0
20260831170104 65 295 9.0 18.0 0.00 0.81 0.72 68 1018.1
20260831165559 65 268 11.0 18.0 0.00 0.83 0.72 68 1018.0
20260831165057 65 290 11.0 18.0 0.00 0.83 0.72 67 1018.0
20260831164635 65 313 8.0 20.0 0.00 0.83 0.72 69 1017.9
20260831164058 65 315 11.0 20.0 0.00 0.83 0.72 69 1017.8
20260831163558 65 261 11.0 19.0 0.00 0.83 0.72 69 1017.8
20260831163103 66 297 9.0 19.0 0.00 0.83 0.72 68 1017.8
20260831162603 66 293 10.0 18.0 0.00 0.83 0.72 69 1017.8
20260831162102 65 319 11.0 20.0 0.00 0.83 0.72 69 1017.8
20260831161614 65 293 9.0 20.0 0.00 0.83 0.72 68 1017.8
20260831161101 65 240 12.0 21.0 0.00 0.83 0.72 69 1017.8
20260831160603 66 316 12.0 21.0 0.00 0.83 0.72 70 1017.7
20260831160103 65 324 11.0 22.0 0.00 0.83 0.72 70 1017.7
20260831155601 65 282 13.0 22.0 0.00 0.83 0.72 69 1017.6
20260831155101 66 296 13.0 22.0 0.00 0.83 0.72 69 1017.6
20260831154634 67 262 11.0 22.0 0.00 0.83 0.72 70 1017.6
20260831154059 67 262 13.0 20.0 0.00 0.83 0.72 71 1017.6
20260831153602 66 317 13.0 24.0 0.00 0.83 0.72 70 1017.4
20260831153107 66 298 12.0 24.0 0.00 0.83 0.72 71 1017.5
20260831152558 66 252 11.0 24.0 0.00 0.83 0.72 71 1017.5
20260831152101 67 301 9.0 23.0 0.00 0.83 0.72 69 1017.3
20260831151616 67 286 11.0 21.0 0.00 0.83 0.72 68 1017.4
20260831151057 67 262 11.0 24.0 0.00 0.83 0.72 67 1017.4
20260831150558 67 278 13.0 24.0 0.00 0.83 0.72 67 1017.2
20260831150104 68 282 12.0 21.0 0.00 0.83 0.72 65 1017.1
20260831145602 69 296 12.0 23.0 0.00 0.83 0.72 66 1017.0
20260831145057 69 271 11.0 23.0 0.00 0.83 0.72 63 1017.0
20260831144626 70 292 15.0 24.0 0.00 0.83 0.72 62 1016.8
20260831144058 70 309 13.0 24.0 0.00 0.83 0.72 65 1016.8
20260831143558 70 302 11.0 20.0 0.00 0.83 0.72 66 1016.8
20260831143116 69 267 13.0 22.0 0.00 0.83 0.72 67 1016.8
20260831142559 69 273 13.0 25.0 0.00 0.83 0.72 67 1016.8
20260831142102 70 277 12.0 25.0 0.00 0.83 0.72 68 1016.8
20260831141624 70 284 9.0 19.0 0.00 0.83 0.72 69 1016.7
20260831141102 68 277 11.0 19.0 0.00 0.83 0.72 69 1016.7
20260831140559 68 274 11.0 19.0 0.00 0.83 0.72 73 1016.5
20260831135558 68 288 11.0 20.0 0.00 0.83 0.72 70 1016.6
20260831135058 68 252 8.0 20.0 0.00 0.83 0.72 68 1016.5
20260831134600 69 277 8.0 20.0 0.00 0.83 0.72 68 1016.4
20260831134057 68 290 11.0 24.0 0.00 0.83 0.72 69 1016.3
20260831133559 69 309 12.0 25.0 0.00 0.83 0.72 69 1016.3
20260831133107 70 270 12.0 25.0 0.00 0.83 0.72 66 1016.2
20260831132557 70 230 12.0 22.0 0.00 0.83 0.72 66 1016.0
20260831132058 69 297 10.0 23.0 0.00 0.83 0.72 69 1016.0
20260831131603 69 295 12.0 23.0 0.00 0.83 0.72 68 1016.0
20260831131100 69 295 12.0 19.0 0.00 0.83 0.72 71 1015.8
20260831130601 69 269 7.0 21.0 0.00 0.83 0.72 69 1015.7
20260831125558 70 300 9.0 21.0 0.00 0.83 0.72 69 1015.7
20260831125100 70 261 12.0 21.0 0.00 0.83 0.72 70 1015.7
20260831124609 70 283 9.0 19.0 0.00 0.83 0.72 71 1015.6
20260831124100 69 313 8.0 19.0 0.00 0.83 0.72 72 1015.6
20260831123557 69 265 8.0 20.0 0.00 0.83 0.72 71 1015.6
20260831123108 69 308 13.0 24.0 0.00 0.83 0.72 72 1015.5
20260831122608 69 277 12.0 24.0 0.00 0.83 0.72 72 1015.4
20260831122104 69 277 13.0 24.0 0.00 0.83 0.72 70 1015.4
20260831121610 69 299 10.0 24.0 0.00 0.83 0.72 70 1015.2
20260831121058 69 335 12.0 24.0 0.00 0.83 0.72 68 1015.2
20260831120558 69 283 11.0 23.0 0.00 0.83 0.72 69 1015.1
20260831115557 69 248 13.0 24.0 0.00 0.83 0.72 70 1015.0
20260831115057 69 287 11.0 23.0 0.00 0.83 0.72 72 1014.8
20260831114606 69 290 14.0 23.0 0.00 0.83 0.72 72 1014.7
20260831114059 69 266 11.0 21.0 0.00 0.83 0.72 71 1014.6
20260831113559 69 246 13.0 21.0 0.00 0.83 0.72 72 1014.5
20260831113107 69 273 10.0 23.0 0.00 0.83 0.72 71 1014.4
20260831112601 69 297 12.0 23.0 0.00 0.83 0.72 72 1014.4
20260831112058 69 279 10.0 20.0 0.00 0.83 0.72 73 1014.3
20260831111610 69 278 9.0 23.0 0.00 0.83 0.72 77 1014.2
20260831111058 69 284 15.0 23.0 0.00 0.83 0.72 72 1014.1
20260831110558 69 295 16.0 22.0 0.00 0.83 0.72 72 1014.1
20260831105559 69 290 13.0 23.0 0.00 0.83 0.72 75 1013.9
20260831105059 69 278 11.0 24.0 0.00 0.83 0.72 75 1014.1
20260831104611 68 286 15.0 26.0 0.00 0.83 0.72 74 1013.9
20260831104058 68 289 14.0 26.0 0.00 0.83 0.72 77 1013.8
20260831103557 68 300 9.0 23.0 0.00 0.83 0.72 78 1013.9
20260831103104 68 333 13.0 22.0 0.00 0.83 0.72 76 1013.8
20260831102559 67 294 11.0 24.0 0.00 0.83 0.72 76 1013.7
20260831102058 68 284 11.0 24.0 0.00 0.83 0.72 76 1013.7
20260831101606 68 308 14.0 23.0 0.00 0.83 0.72 76 1013.6
20260831101057 68 296 14.0 23.0 0.00 0.83 0.72 76 1013.5
20260831100558 68 360 13.0 22.0 0.00 0.83 0.72 76 1013.4
20260831100106 68 294 13.0 23.0 0.00 0.83 0.72 75 1013.2
20260831095557 68 290 14.0 25.0 0.00 0.83 0.72 76 1013.2
20260831095058 67 275 16.0 25.0 0.00 0.83 0.72 75 1013.2
20260831094608 67 259 10.0 19.0 0.00 0.83 0.72 77 1013.1
20260831094101 67 274 13.0 20.0 0.00 0.83 0.72 77 1013.1
20260831093558 66 299 10.0 20.0 0.00 0.83 0.72 79 1013.0
20260831093108 66 286 13.0 21.0 0.00 0.83 0.72 78 1012.7
20260831092559 66 271 12.0 21.0 0.00 0.83 0.72 79 1012.7
20260831092058 66 269 14.0 23.0 0.00 0.83 0.72 79 1012.5
20260831091603 66 307 11.0 23.0 0.00 0.83 0.72 79 1012.4
20260831091058 65 266 13.0 24.0 0.00 0.83 0.72 79 1012.3
20260831090558 65 313 12.0 25.0 0.00 0.83 0.72 80 1012.3
20260831090105 66 300 15.0 25.0 0.00 0.83 0.72 79 1012.2
20260831085558 66 248 12.0 20.0 0.00 0.83 0.72 79 1012.1
20260831085059 65 306 11.0 20.0 0.00 0.83 0.72 80 1011.9
20260831084611 65 320 12.0 20.0 0.00 0.83 0.72 79 1011.9
20260831084059 65 276 10.0 21.0 0.00 0.83 0.72 80 1011.7
20260831083558 65 299 12.0 21.0 0.00 0.83 0.72 80 1011.7
20260831083113 65 301 12.0 21.0 0.00 0.83 0.72 80 1011.7
20260831082558 65 298 12.0 21.0 0.00 0.83 0.72 80 1011.5
20260831082058 65 302 11.0 21.0 0.00 0.83 0.72 82 1011.4
20260831081607 65 305 13.0 20.0 0.00 0.83 0.72 81 1011.4
20260831081058 64 309 9.0 18.0 0.00 0.83 0.72 83 1011.3
20260831080556 64 314 10.0 18.0 0.00 0.83 0.72 83 1011.3
20260831080107 64 286 9.0 20.0 0.00 0.83 0.72 82 1011.3
20260831075558 64 302 10.0 20.0 0.00 0.83 0.72 82 1011.1
20260831075057 64 308 11.0 23.0 0.00 0.83 0.72 82 1011.1
20260831074618 64 302 14.0 23.0 0.00 0.83 0.72 81 1011.1
20260831074102 64 304 14.0 21.0 0.00 0.83 0.72 83 1010.9
20260831073557 64 321 13.0 22.0 0.00 0.83 0.72 82 1010.8
20260831073107 64 286 13.0 28.0 0.00 0.83 0.72 82 1010.7
20260831072559 64 305 14.0 28.0 0.00 0.83 0.72 82 1010.6
20260831072058 64 281 13.0 26.0 0.00 0.83 0.72 81 1010.5
20260831071602 64 297 14.0 22.0 0.00 0.83 0.72 82 1010.3
20260831071058 64 264 13.0 20.0 0.00 0.83 0.72 82 1010.2
20260831070558 64 317 12.0 24.0 0.00 0.83 0.72 83 1010.0
20260831070111 64 292 14.0 25.0 0.00 0.83 0.72 82 1010.0
20260831065600 64 290 14.0 25.0 0.00 0.83 0.72 82 1009.8
20260831065057 64 262 13.0 31.0 0.00 0.83 0.72 83 1009.9
20260831064604 63 309 14.0 31.0 0.00 0.83 0.72 83 1009.6
20260831064101 63 290 12.0 22.0 0.00 0.83 0.72 84 1009.6
20260831063558 63 300 14.0 22.0 0.00 0.83 0.72 84 1009.4
20260831063108 63 284 12.0 22.0 0.00 0.83 0.72 83 1009.4
20260831062558 63 299 12.0 22.0 0.00 0.83 0.72 84 1009.3
20260831062101 63 289 14.0 23.0 0.00 0.83 0.72 84 1009.2
20260831061609 63 296 13.0 25.0 0.00 0.83 0.72 83 1009.0
20260831061058 62 302 15.0 26.0 0.00 0.83 0.72 84 1009.0
20260831060558 62 289 14.0 26.0 0.00 0.83 0.72 84 1008.8
20260831060110 62 289 13.0 22.0 0.00 0.83 0.72 85 1008.6
20260831055601 62 282 13.0 22.0 0.00 0.83 0.72 85 1008.6
20260831055101 62 293 9.0 18.0 0.00 0.83 0.72 86 1008.4
20260831054606 62 293 11.0 18.0 0.00 0.83 0.72 88 1008.4
20260831054059 61 260 10.0 21.0 0.00 0.83 0.72 87 1008.2
20260831053601 61 306 13.0 21.0 0.00 0.83 0.72 86 1008.3
20260831053102 61 292 11.0 21.0 0.00 0.83 0.72 86 1008.0
20260831052559 61 292 11.0 21.0 0.04 0.83 0.72 86 1008.0